Home   Weather   Granby   Past weeks
Flag for Canada

Past Weather in Granby, Quebec, Canada — Yesterday and Last 2 Weeks

Now
56 °F

Cool.


Feels Like: 56 °F
Forecast: 71 / 51 °F
Wind: 3 mph from South

Location: Frelighsburg

Current Time: Sep 20, 2019 at 8:26:06 am

Latest Report: Sep 20, 2019 at 8:00 am


Visibility: N/A

Pressure: 30.23 "Hg

Humidity: 70%

Dew Point: 46 °F

Location of GranbyLocation

Past Weather in Granby — Graph

°F

Granby Temperature Yesterday

Maximum temperature yesterday: 66 °F (at 4:00 pm)
Minimum temperature yesterday: 44 °F (at 6:00 am)
Average temperature yesterday: 55 °F

High & Low Weather Summary for the Past Weeks

 TemperatureHumidityPressure
High74 °F (Sep 11, 4:00 pm)99% (Sep 8, 12:00 am)30.48 "Hg (Sep 8, 12:00 am)
Low42 °F (Sep 13, 7:00 am)33% (Sep 18, 3:00 pm)29.72 "Hg (Sep 7, 3:00 pm)
Average57 °F74%30.14 "Hg
* Reported Sep 5 7:00 am — Sep 20 7:00 am, Granby. Weather by CustomWeather, © 2019

Note: Actual official high and low records may vary slightly from our data, if they occured in-between our weather recording intervals... More about our weather records

Advertising

Granby Weather History for the Previous 24 Hours

Scroll right to see more
 ConditionsComfort  
Time TempWeatherWind HumidityBarometerVisibility
7:00 am
Fri, Sep 20
51 °FCool.3 mph74%30.22 "HgN/A
6:00 am51 °FCool.5 mph75%30.21 "HgN/A
5:00 am52 °FCool.5 mph70%30.20 "HgN/A
4:00 am53 °FCool.3 mph69%30.20 "HgN/A
3:00 am53 °FCool.5 mph64%30.20 "HgN/A
2:00 am54 °FCool.5 mph63%30.21 "HgN/A
1:00 am54 °FCool.3 mph67%30.21 "HgN/A
12:00 am54 °FCool.5 mph66%30.22 "HgN/A
11:00 pm
Thu, Sep 19
54 °FCool.5 mph67%30.23 "HgN/A
10:00 pm54 °FCool.5 mph71%30.23 "HgN/A
9:00 pm56 °FCool.3 mph68%30.24 "HgN/A
8:00 pm57 °FCool.No wind66%30.26 "HgN/A
7:00 pm58 °FCool.2 mph65%30.26 "HgN/A
6:00 pm60 °FCool.1 mph63%30.25 "HgN/A
5:00 pm65 °FMild.1 mph49%30.27 "HgN/A
4:00 pm66 °FMild.1 mph41%30.28 "HgN/A
3:00 pm66 °FMild.2 mph37%30.28 "HgN/A
2:00 pm65 °FMild.3 mph39%30.28 "HgN/A
1:00 pm63 °FMild.5 mph44%30.30 "HgN/A
12:00 pm60 °FRefreshingly cool.3 mph52%30.32 "HgN/A
11:00 am58 °FRefreshingly cool.3 mph56%30.33 "HgN/A
10:00 am55 °FRefreshingly cool.6 mph54%30.34 "HgN/A
9:00 am51 °FCool.3 mph60%30.34 "HgN/A
8:00 am48 °FCool.5 mph66%30.33 "HgN/A
Weather by CustomWeather, © 2019

See weather overview